Volver al catálogo

EXPRESS AM-8

ActivoComunicacionesGEO
NORAD 40895·PAYLOAD·🇷🇺 Russia

Lanzado Sep 14, 2015 desde Baikonur Cosmodrome

Loading…

TLE

ActualizadoSource: Space-Track

Época: Sep 14, 2026, 10:18 UTC

1 40895U 15048A   26257.42952451  .00000000  00000-0  00000-0 0  9998
2 40895   0.0177 178.6505 0000098  10.6890 304.7036  1.00271515 40241

Sigue EXPRESS AM-8 en tiempo real con AllMySat

Download on the App Store